#Datum;Uhrzeit;WR;Pac;DaySum;Status;WR;Pac;DaySum;Status;Pdc1;Udc;Temp;WR;Pac;DaySum;Status;Pdc1;Udc;Temp;WR;Pac;DaySum;Status;Pdc1;Udc;Temp;WR;Pac;DaySum;Status;Pdc1;Pdc2;Udc1;Udc2;Temp;WR;Pac;DaySum;Status;Pdc1;Pdc2;Udc1;Udc2;Temp;WR;Pac;DaySum;Status;Pdc1;Udc;Temp;WR;Pac;DaySum;Status;Pdc1;Udc;Temp;WR;Pac;DaySum;Status;Pdc1;Udc;Temp
07.02.18;23:55:00;1;197;8924;0;2;0;3358;0;0;0;0;3;0;2086;0;0;0;0;4;0;3040;0;0;0;0;5;0;7546;0;0;0;0;0;0;6;0;5149;0;0;0;0;0;0;7;0;3877;0;0;0;0;8;0;3859;0;0;0;0;9;0;2023;0;0;0;0
07.02.18;23:50:00;1;196;8908;0;2;0;3358;0;0;0;0;3;0;2086;0;0;0;0;4;0;3040;0;0;0;0;5;0;7546;0;0;0;0;0;0;6;0;5149;0;0;0;0;0;0;7;0;3877;0;0;0;0;8;0;3859;0;0;0;0;9;0;2023;0;0;0;0
07.02.18;23:45:00;1;196;8892;0;2;0;3358;0;0;0;0;3;0;2086;0;0;0;0;4;0;3040;0;0;0;0;5;0;7546;0;0;0;0;0;0;6;0;5149;0;0;0;0;0;0;7;0;3877;0;0;0;0;8;0;3859;0;0;0;0;9;0;2023;0;0;0;0
07.02.18;23:40:00;1;997;8875;0;2;0;3358;0;0;0;0;3;0;2086;0;0;0;0;4;0;3040;0;0;0;0;5;0;7546;0;0;0;0;0;0;6;0;5149;0;0;0;0;0;0;7;0;3877;0;0;0;0;8;0;3859;0;0;0;0;9;0;2023;0;0;0;0
07.02.18;23:35:00;1;196;8829;0;2;0;3358;0;0;0;0;3;0;2086;0;0;0;0;4;0;3040;0;0;0;0;5;0;7546;0;0;0;0;0;0;6;0;5149;0;0;0;0;0;0;7;0;3877;0;0;0;0;8;0;3859;0;0;0;0;9;0;2023;0;0;0;0
07.02.18;23:30:00;1;196;8813;0;2;0;3358;0;0;0;0;3;0;2086;0;0;0;0;4;0;3040;0;0;0;0;5;0;7546;0;0;0;0;0;0;6;0;5149;0;0;0;0;0;0;7;0;3877;0;0;0;0;8;0;3859;0;0;0;0;9;0;2023;0;0;0;0
07.02.18;23:25:00;1;197;8796;0;2;0;3358;0;0;0;0;3;0;2086;0;0;0;0;4;0;3040;0;0;0;0;5;0;7546;0;0;0;0;0;0;6;0;5149;0;0;0;0;0;0;7;0;3877;0;0;0;0;8;0;3859;0;0;0;0;9;0;2023;0;0;0;0
07.02.18;23:20:00;1;238;8779;0;2;0;3358;0;0;0;0;3;0;2086;0;0;0;0;4;0;3040;0;0;0;0;5;0;7546;0;0;0;0;0;0;6;0;5149;0;0;0;0;0;0;7;0;3877;0;0;0;0;8;0;3859;0;0;0;0;9;0;2023;0;0;0;0
07.02.18;23:15:00;1;454;8759;0;2;0;3358;0;0;0;0;3;0;2086;0;0;0;0;4;0;3040;0;0;0;0;5;0;7546;0;0;0;0;0;0;6;0;5149;0;0;0;0;0;0;7;0;3877;0;0;0;0;8;0;3859;0;0;0;0;9;0;2023;0;0;0;0
07.02.18;23:10:00;1;236;8709;0;2;0;3358;0;0;0;0;3;0;2086;0;0;0;0;4;0;3040;0;0;0;0;5;0;7546;0;0;0;0;0;0;6;0;5149;0;0;0;0;0;0;7;0;3877;0;0;0;0;8;0;3859;0;0;0;0;9;0;2023;0;0;0;0
07.02.18;23:05:00;1;197;8689;0;2;0;3358;0;0;0;0;3;0;2086;0;0;0;0;4;0;3040;0;0;0;0;5;0;7546;0;0;0;0;0;0;6;0;5149;0;0;0;0;0;0;7;0;3877;0;0;0;0;8;0;3859;0;0;0;0;9;0;2023;0;0;0;0
07.02.18;23:00:00;1;207;8673;0;2;0;3358;0;0;0;0;3;0;2086;0;0;0;0;4;0;3040;0;0;0;0;5;0;7546;0;0;0;0;0;0;6;0;5149;0;0;0;0;0;0;7;0;3877;0;0;0;0;8;0;3859;0;0;0;0;9;0;2023;0;0;0;0
07.02.18;22:55:00;1;263;8655;0;2;0;3358;0;0;0;0;3;0;2086;0;0;0;0;4;0;3040;0;0;0;0;5;0;7546;2;0;0;0;0;0;6;0;5149;2;0;0;0;0;0;7;0;3877;0;0;0;0;8;0;3859;0;0;0;0;9;0;2023;0;0;0;0
07.02.18;22:50:00;1;282;8633;0;2;0;3358;0;0;0;0;3;0;2086;0;0;0;0;4;0;3040;0;0;0;0;5;0;7546;2;0;0;0;0;0;6;0;5149;2;0;0;0;0;0;7;0;3877;0;0;0;0;8;0;3859;0;0;0;0;9;0;2023;0;0;0;0
07.02.18;22:45:00;1;830;8608;0;2;0;3358;0;0;0;0;3;0;2086;0;0;0;0;4;0;3040;0;0;0;0;5;0;7546;2;0;0;0;0;0;6;0;5149;2;0;0;0;0;0;7;0;3877;0;0;0;0;8;0;3859;0;0;0;0;9;0;2023;0;0;0;0
07.02.18;22:40:00;1;278;8554;0;2;0;3358;0;0;0;0;3;0;2086;0;0;0;0;4;0;3040;0;0;0;0;5;0;7546;2;0;0;0;0;0;6;0;5149;2;0;0;0;0;0;7;0;3877;0;0;0;0;8;0;3859;0;0;0;0;9;0;2023;0;0;0;0
07.02.18;22:35:00;1;323;8531;0;2;0;3358;0;0;0;0;3;0;2086;0;0;0;0;4;0;3040;0;0;0;0;5;0;7546;2;0;0;0;0;0;6;0;5149;2;0;0;0;0;0;7;0;3877;0;0;0;0;8;0;3859;0;0;0;0;9;0;2023;0;0;0;0
07.02.18;22:30:00;1;418;8503;0;2;0;3358;0;0;0;0;3;0;2086;0;0;0;0;4;0;3040;0;0;0;0;5;0;7546;2;0;0;0;0;0;6;0;5149;2;0;0;0;0;0;7;0;3877;0;0;0;0;8;0;3859;0;0;0;0;9;0;2023;0;0;0;0
07.02.18;22:25:00;1;380;8469;0;2;0;3358;0;0;0;0;3;0;2086;0;0;0;0;4;0;3040;0;0;0;0;5;0;7546;2;0;0;0;0;0;6;0;5149;2;0;0;0;0;0;7;0;3877;0;0;0;0;8;0;3859;0;0;0;0;9;0;2023;0;0;0;0
07.02.18;22:20:00;1;620;8437;0;2;0;3358;0;0;0;0;3;0;2086;0;0;0;0;4;0;3040;0;0;0;0;5;0;7546;2;0;0;0;0;0;6;0;5149;2;0;0;0;0;0;7;0;3877;0;0;0;0;8;0;3859;0;0;0;0;9;0;2023;0;0;0;0
07.02.18;22:15:00;1;362;8375;0;2;0;3358;0;0;0;0;3;0;2086;0;0;0;0;4;0;3040;0;0;0;0;5;0;7546;2;0;0;0;0;0;6;0;5149;2;0;0;0;0;0;7;0;3877;0;0;0;0;8;0;3859;0;0;0;0;9;0;2023;0;0;0;0
07.02.18;22:10:00;1;340;8345;0;2;0;3358;0;0;0;0;3;0;2086;0;0;0;0;4;0;3040;0;0;0;0;5;0;7546;2;0;0;0;0;0;6;0;5149;2;0;0;0;0;0;7;0;3877;0;0;0;0;8;0;3859;0;0;0;0;9;0;2023;0;0;0;0
07.02.18;22:05:00;1;345;8317;0;2;0;3358;0;0;0;0;3;0;2086;0;0;0;0;4;0;3040;0;0;0;0;5;0;7546;2;0;0;0;0;0;6;0;5149;2;0;0;0;0;0;7;0;3877;0;0;0;0;8;0;3859;0;0;0;0;9;0;2023;0;0;0;0
07.02.18;22:00:00;1;345;8288;0;2;0;3358;0;0;0;0;3;0;2086;0;0;0;0;4;0;3040;0;0;0;0;5;0;7546;2;0;0;0;0;0;6;0;5149;2;0;0;0;0;0;7;0;3877;0;0;0;0;8;0;3859;0;0;0;0;9;0;2023;0;0;0;0
07.02.18;21:55:00;1;346;8259;0;2;0;3358;0;0;0;0;3;0;2086;0;0;0;0;4;0;3040;0;0;0;0;5;0;7546;2;0;0;0;0;0;6;0;5149;2;0;0;0;0;0;7;0;3877;0;0;0;0;8;0;3859;0;0;0;0;9;0;2023;0;0;0;0
07.02.18;21:50:00;1;758;8230;0;2;0;3358;0;0;0;0;3;0;2086;0;0;0;0;4;0;3040;0;0;0;0;5;0;7546;2;0;0;0;0;0;6;0;5149;2;0;0;0;0;0;7;0;3877;0;0;0;0;8;0;3859;0;0;0;0;9;0;2023;0;0;0;0
07.02.18;21:45:00;1;344;8172;0;2;0;3358;0;0;0;0;3;0;2086;0;0;0;0;4;0;3040;0;0;0;0;5;0;7546;2;0;0;0;0;0;6;0;5149;2;0;0;0;0;0;7;0;3877;0;0;0;0;8;0;3859;0;0;0;0;9;0;2023;0;0;0;0
07.02.18;21:40:00;1;345;8143;0;2;0;3358;0;0;0;0;3;0;2086;0;0;0;0;4;0;3040;0;0;0;0;5;0;7546;2;0;0;0;0;0;6;0;5149;2;0;0;0;0;0;7;0;3877;0;0;0;0;8;0;3859;0;0;0;0;9;0;2023;0;0;0;0
07.02.18;21:35:00;1;376;8115;0;2;0;3358;0;0;0;0;3;0;2086;0;0;0;0;4;0;3040;0;0;0;0;5;0;7546;2;0;0;0;0;0;6;0;5149;2;0;0;0;0;0;7;0;3877;0;0;0;0;8;0;3859;0;0;0;0;9;0;2023;0;0;0;0
07.02.18;21:30:00;1;584;8083;0;2;0;3358;0;0;0;0;3;0;2086;0;0;0;0;4;0;3040;0;0;0;0;5;0;7546;2;0;0;0;0;0;6;0;5149;2;0;0;0;0;0;7;0;3877;0;0;0;0;8;0;3859;0;0;0;0;9;0;2023;0;0;0;0
07.02.18;21:25:00;1;777;8015;0;2;0;3358;0;0;0;0;3;0;2086;0;0;0;0;4;0;3040;0;0;0;0;5;0;7546;2;0;0;0;0;0;6;0;5149;2;0;0;0;0;0;7;0;3877;0;0;0;0;8;0;3859;0;0;0;0;9;0;2023;0;0;0;0
07.02.18;21:20:00;1;354;7933;0;2;0;3358;0;0;0;0;3;0;2086;0;0;0;0;4;0;3040;0;0;0;0;5;0;7546;2;0;0;0;0;0;6;0;5149;2;0;0;0;0;0;7;0;3877;0;0;0;0;8;0;3859;0;0;0;0;9;0;2023;0;0;0;0
07.02.18;21:15:00;1;397;7903;0;2;0;3358;0;0;0;0;3;0;2086;0;0;0;0;4;0;3040;0;0;0;0;5;0;7546;2;0;0;0;0;0;6;0;5149;2;0;0;0;0;0;7;0;3877;0;0;0;0;8;0;3859;0;0;0;0;9;0;2023;0;0;0;0
07.02.18;21:10:00;1;477;7869;0;2;0;3358;0;0;0;0;3;0;2086;0;0;0;0;4;0;3040;0;0;0;0;5;0;7546;2;0;0;0;0;0;6;0;5149;2;0;0;0;0;0;7;0;3877;0;0;0;0;8;0;3859;0;0;0;0;9;0;2023;0;0;0;0
07.02.18;21:05:00;1;459;7830;0;2;0;3358;0;0;0;0;3;0;2086;0;0;0;0;4;0;3040;0;0;0;0;5;0;7546;2;0;0;0;0;0;6;0;5149;2;0;0;0;0;0;7;0;3877;0;0;0;0;8;0;3859;0;0;0;0;9;0;2023;0;0;0;0
07.02.18;21:00:00;1;432;7792;0;2;0;3358;0;0;0;0;3;0;2086;0;0;0;0;4;0;3040;0;0;0;0;5;0;7546;2;0;0;0;0;0;6;0;5149;2;0;0;0;0;0;7;0;3877;0;0;0;0;8;0;3859;0;0;0;0;9;0;2023;0;0;0;0
07.02.18;20:55:00;1;651;7756;0;2;0;3358;0;0;0;0;3;0;2086;0;0;0;0;4;0;3040;0;0;0;0;5;0;7546;2;0;0;0;0;0;6;0;5149;2;0;0;0;0;0;7;0;3877;0;0;0;0;8;0;3859;0;0;0;0;9;0;2023;0;0;0;0
07.02.18;20:50:00;1;288;7704;0;2;0;3358;0;0;0;0;3;0;2086;0;0;0;0;4;0;3040;0;0;0;0;5;0;7546;2;0;0;0;0;0;6;0;5149;2;0;0;0;0;0;7;0;3877;0;0;0;0;8;0;3859;0;0;0;0;9;0;2023;0;0;0;0
07.02.18;20:45:00;1;187;7680;0;2;0;3358;0;0;0;0;3;0;2086;0;0;0;0;4;0;3040;0;0;0;0;5;0;7546;2;0;0;0;0;0;6;0;5149;2;0;0;0;0;0;7;0;3877;0;0;0;0;8;0;3859;0;0;0;0;9;0;2023;0;0;0;0
07.02.18;20:40:00;1;199;7664;0;2;0;3358;0;0;0;0;3;0;2086;0;0;0;0;4;0;3040;0;0;0;0;5;0;7546;2;0;0;0;0;0;6;0;5149;2;0;0;0;0;0;7;0;3877;0;0;0;0;8;0;3859;0;0;0;0;9;0;2023;0;0;0;0
07.02.18;20:35:00;1;230;7647;0;2;0;3358;0;0;0;0;3;0;2086;0;0;0;0;4;0;3040;0;0;0;0;5;0;7546;2;0;0;0;0;0;6;0;5149;2;0;0;0;0;0;7;0;3877;0;0;0;0;8;0;3859;0;0;0;0;9;0;2023;0;0;0;0
07.02.18;20:30:00;1;231;7628;0;2;0;3358;0;0;0;0;3;0;2086;0;0;0;0;4;0;3040;0;0;0;0;5;0;7546;2;0;0;0;0;0;6;0;5149;2;0;0;0;0;0;7;0;3877;0;0;0;0;8;0;3859;0;0;0;0;9;0;2023;0;0;0;0
07.02.18;20:25:00;1;389;7608;0;2;0;3358;0;0;0;0;3;0;2086;0;0;0;0;4;0;3040;0;0;0;0;5;0;7546;2;0;0;0;0;0;6;0;5149;2;0;0;0;0;0;7;0;3877;0;0;0;0;8;0;3859;0;0;0;0;9;0;2023;0;0;0;0
07.02.18;20:20:00;1;188;7561;0;2;0;3358;0;0;0;0;3;0;2086;0;0;0;0;4;0;3040;0;0;0;0;5;0;7546;2;0;0;0;0;0;6;0;5149;2;0;0;0;0;0;7;0;3877;0;0;0;0;8;0;3859;0;0;0;0;9;0;2023;0;0;0;0
07.02.18;20:15:00;1;242;7545;0;2;0;3358;0;0;0;0;3;0;2086;0;0;0;0;4;0;3040;0;0;0;0;5;0;7546;2;0;0;0;0;0;6;0;5149;2;0;0;0;0;0;7;0;3877;0;0;0;0;8;0;3859;0;0;0;0;9;0;2023;0;0;0;0
07.02.18;20:10:00;1;260;7525;0;2;0;3358;0;0;0;0;3;0;2086;0;0;0;0;4;0;3040;0;0;0;0;5;0;7546;2;0;0;0;0;0;6;0;5149;2;0;0;0;0;0;7;0;3877;0;0;0;0;8;0;3859;0;0;0;0;9;0;2023;0;0;0;0
07.02.18;20:05:00;1;367;7503;0;2;0;3358;0;0;0;0;3;0;2086;0;0;0;0;4;0;3040;0;0;0;0;5;0;7546;2;0;0;0;0;0;6;0;5149;2;0;0;0;0;0;7;0;3877;0;0;0;0;8;0;3859;0;0;0;0;9;0;2023;0;0;0;0
07.02.18;20:00:00;1;393;7473;0;2;0;3358;0;0;0;0;3;0;2086;0;0;0;0;4;0;3040;0;0;0;0;5;0;7546;2;0;0;0;0;0;6;0;5149;2;0;0;0;0;0;7;0;3877;0;0;0;0;8;0;3859;0;0;0;0;9;0;2023;0;0;0;0
07.02.18;19:55:00;1;596;7430;0;2;0;3358;0;0;0;0;3;0;2086;0;0;0;0;4;0;3040;0;0;0;0;5;0;7546;2;0;0;0;0;0;6;0;5149;2;0;0;0;0;0;7;0;3877;0;0;0;0;8;0;3859;0;0;0;0;9;0;2023;0;0;0;0
07.02.18;19:50:00;1;393;7378;0;2;0;3358;0;0;0;0;3;0;2086;0;0;0;0;4;0;3040;0;0;0;0;5;0;7546;2;0;0;0;0;0;6;0;5149;2;0;0;0;0;0;7;0;3877;0;0;0;0;8;0;3859;0;0;0;0;9;0;2023;0;0;0;0
07.02.18;19:45:00;1;424;7345;0;2;0;3358;0;0;0;0;3;0;2086;0;0;0;0;4;0;3040;0;0;0;0;5;0;7546;2;0;0;0;0;0;6;0;5149;2;0;0;0;0;0;7;0;3877;0;0;0;0;8;0;3859;0;0;0;0;9;0;2023;0;0;0;0
07.02.18;19:40:00;1;464;7309;0;2;0;3358;0;0;0;0;3;0;2086;0;0;0;0;4;0;3040;0;0;0;0;5;0;7546;2;0;0;0;0;0;6;0;5149;2;0;0;0;0;0;7;0;3877;0;0;0;0;8;0;3859;0;0;0;0;9;0;2023;0;0;0;0
07.02.18;19:35:00;1;485;7271;0;2;0;3358;0;0;0;0;3;0;2086;0;0;0;0;4;0;3040;0;0;0;0;5;0;7546;2;0;0;0;0;0;6;0;5149;2;0;0;0;0;0;7;0;3877;0;0;0;0;8;0;3859;0;0;0;0;9;0;2023;0;0;0;0
07.02.18;19:30:00;1;928;7231;0;2;0;3358;0;0;0;0;3;0;2086;0;0;0;0;4;0;3040;0;0;0;0;5;0;7546;2;0;0;0;0;0;6;0;5149;2;0;0;0;0;0;7;0;3877;0;0;0;0;8;0;3859;0;0;0;0;9;0;2023;0;0;0;0
07.02.18;19:25:00;1;457;7162;0;2;0;3358;0;0;0;0;3;0;2086;0;0;0;0;4;0;3040;0;0;0;0;5;0;7546;2;0;0;0;0;0;6;0;5149;2;0;0;0;0;0;7;0;3877;0;0;0;0;8;0;3859;0;0;0;0;9;0;2023;0;0;0;0
07.02.18;19:20:00;1;456;7124;0;2;0;3358;0;0;0;0;3;0;2086;0;0;0;0;4;0;3040;0;0;0;0;5;0;7546;2;0;0;0;0;0;6;0;5149;2;0;0;0;0;0;7;0;3877;0;0;0;0;8;0;3859;0;0;0;0;9;0;2023;0;0;0;0
07.02.18;19:15:00;1;456;7086;0;2;0;3358;0;0;0;0;3;0;2086;0;0;0;0;4;0;3040;0;0;0;0;5;0;7546;2;0;0;0;0;0;6;0;5149;2;0;0;0;0;0;7;0;3877;0;0;0;0;8;0;3859;0;0;0;0;9;0;2023;0;0;0;0
07.02.18;19:10:00;1;390;7048;0;2;0;3358;0;0;0;0;3;0;2086;0;0;0;0;4;0;3040;0;0;0;0;5;0;7546;2;0;0;0;0;0;6;0;5149;2;0;0;0;0;0;7;0;3877;0;0;0;0;8;0;3859;0;0;0;0;9;0;2023;0;0;0;0
07.02.18;19:05:00;1;388;7016;0;2;0;3358;0;0;0;0;3;0;2086;0;0;0;0;4;0;3040;0;0;0;0;5;0;7546;2;0;0;0;0;0;6;0;5149;2;0;0;0;0;0;7;0;3877;0;0;0;0;8;0;3859;0;0;0;0;9;0;2023;0;0;0;0
07.02.18;19:00:00;1;791;6983;0;2;0;3358;0;0;0;0;3;0;2086;0;0;0;0;4;0;3040;0;0;0;0;5;0;7546;2;0;0;0;0;0;6;0;5149;2;0;0;0;0;0;7;0;3877;0;0;0;0;8;0;3859;0;0;0;0;9;0;2023;0;0;0;0
07.02.18;18:55:00;1;390;6921;0;2;0;3358;0;0;0;0;3;0;2086;0;0;0;0;4;0;3040;0;0;0;0;5;0;7546;2;0;0;0;0;0;6;0;5149;2;0;0;0;0;0;7;0;3877;0;0;0;0;8;0;3859;0;0;0;0;9;0;2023;0;0;0;0
07.02.18;18:50:00;1;429;6888;0;2;0;3358;0;0;0;0;3;0;2086;0;0;0;0;4;0;3040;0;0;0;0;5;0;7546;2;0;0;0;0;0;6;0;5149;2;0;0;0;0;0;7;0;3877;0;0;0;0;8;0;3859;0;0;0;0;9;0;2023;0;0;0;0
07.02.18;18:45:00;1;430;6852;0;2;0;3358;0;0;0;0;3;0;2086;0;0;0;0;4;0;3040;0;0;0;0;5;0;7546;2;0;0;0;0;0;6;0;5149;2;0;0;0;0;0;7;0;3877;0;0;0;0;8;0;3859;0;0;0;0;9;0;2023;0;0;0;0
07.02.18;18:40:00;1;429;6816;0;2;0;3358;0;0;0;0;3;0;2086;0;0;0;0;4;0;3040;0;0;0;0;5;0;7546;2;0;0;0;0;0;6;0;5149;2;0;0;0;0;0;7;0;3877;0;0;0;0;8;0;3859;0;0;0;0;9;0;2023;0;0;0;0
07.02.18;18:35:00;1;922;6781;0;2;0;3358;0;0;0;0;3;0;2086;0;0;0;0;4;0;3040;0;0;0;0;5;0;7546;2;0;0;0;0;0;6;0;5149;2;0;0;0;0;0;7;0;3877;0;0;0;0;8;0;3859;0;0;0;0;9;0;2023;0;0;0;0
07.02.18;18:30:00;1;425;6717;0;2;0;3358;0;0;0;0;3;0;2086;0;0;0;0;4;0;3040;0;0;0;0;5;0;7546;2;0;0;0;0;0;6;0;5149;2;0;0;0;0;0;7;0;3877;0;0;0;0;8;0;3859;0;0;0;0;9;0;2023;0;0;0;0
07.02.18;18:25:00;1;532;6681;0;2;0;3358;0;0;0;0;3;0;2086;0;0;0;0;4;0;3040;0;0;0;0;5;0;7546;2;0;0;0;0;0;6;0;5149;2;0;0;0;0;0;7;0;3877;0;0;0;0;8;0;3859;0;0;0;0;9;0;2023;0;0;0;0
07.02.18;18:20:00;1;592;6635;0;2;0;3358;0;0;0;0;3;0;2086;0;0;0;0;4;0;3040;0;0;0;0;5;0;7546;2;0;0;0;0;0;6;0;5149;2;0;0;0;0;0;7;0;3877;0;0;0;0;8;0;3859;0;0;0;0;9;0;2023;0;0;0;0
07.02.18;18:15:00;1;583;6586;0;2;0;3358;0;0;0;0;3;0;2086;0;0;0;0;4;0;3040;0;0;0;0;5;0;7546;2;0;0;0;0;0;6;0;5149;2;0;0;0;0;0;7;0;3877;0;0;0;0;8;0;3859;0;0;0;0;9;0;2023;0;0;0;0
07.02.18;18:10:00;1;577;6538;0;2;0;3358;0;0;0;0;3;0;2086;0;0;0;0;4;0;3040;0;0;0;0;5;0;7546;2;0;0;0;0;0;6;0;5149;2;0;0;0;0;0;7;0;3877;0;0;0;0;8;0;3859;0;0;0;0;9;0;2023;0;0;0;0
07.02.18;18:05:00;1;826;6490;0;2;0;3358;0;0;0;0;3;0;2086;0;0;0;0;4;0;3040;0;0;0;0;5;0;7546;2;0;0;0;0;0;6;0;5149;2;0;0;0;0;0;7;0;3877;0;0;0;0;8;0;3859;0;0;0;0;9;0;2023;0;0;0;0
07.02.18;18:00:00;1;660;6407;0;2;0;3358;0;0;0;0;3;0;2086;0;0;0;0;4;0;3040;0;0;0;0;5;0;7546;2;0;0;0;0;0;6;0;5149;2;0;0;0;0;0;7;0;3877;0;0;0;0;8;0;3859;0;0;0;0;9;0;2023;0;0;0;0
07.02.18;17:55:00;1;678;6352;0;2;0;3358;0;0;0;0;3;0;2086;0;0;0;0;4;0;3040;0;0;0;0;5;0;7546;2;0;0;0;0;0;6;0;5149;2;0;0;0;0;0;7;0;3877;0;0;0;0;8;0;3859;0;0;0;0;9;0;2023;0;0;0;0
07.02.18;17:50:00;1;678;6295;0;2;0;3358;0;0;0;0;3;0;2086;0;0;0;0;4;0;3040;0;0;0;0;5;0;7546;2;0;0;0;0;0;6;0;5149;2;0;0;0;0;0;7;0;3877;0;0;0;0;8;0;3859;0;0;0;0;9;0;2023;0;0;0;0
07.02.18;17:45:00;1;665;6239;0;2;0;3358;0;0;0;0;3;0;2086;0;0;0;0;4;0;3040;0;0;0;0;5;0;7546;2;0;0;0;0;0;6;0;5149;2;0;0;0;0;0;7;0;3877;0;0;0;0;8;0;3859;0;0;0;0;9;0;2023;0;0;0;0
07.02.18;17:40:00;1;693;6184;0;2;0;3358;0;0;0;0;3;0;2086;0;0;0;0;4;0;3040;0;0;0;0;5;0;7546;2;0;0;0;0;0;6;0;5149;2;0;0;0;0;0;7;0;3877;0;0;0;0;8;0;3859;0;0;0;0;9;0;2023;0;0;0;0
07.02.18;17:35:00;1;952;6112;0;2;0;3358;0;0;0;0;3;0;2086;0;0;0;0;4;0;3040;0;0;0;0;5;0;7546;2;0;0;0;0;0;6;0;5149;2;0;0;0;0;0;7;0;3877;0;0;0;0;8;0;3859;0;0;0;0;9;0;2023;0;0;0;0
07.02.18;17:30:00;1;547;6047;0;2;0;3358;0;0;0;0;3;0;2086;0;0;0;0;4;0;3040;0;0;0;0;5;0;7546;2;0;0;0;0;0;6;0;5149;2;0;0;0;0;0;7;0;3877;0;0;0;0;8;0;3859;0;0;0;0;9;0;2023;0;0;0;0
07.02.18;17:25:00;1;552;6001;0;2;0;3358;0;0;0;0;3;0;2086;0;0;0;0;4;0;3040;0;0;0;0;5;0;7546;2;0;0;0;0;0;6;0;5149;2;0;0;0;0;0;7;0;3877;0;0;0;0;8;0;3859;0;0;0;0;9;0;2023;0;0;0;0
07.02.18;17:20:00;1;547;5955;0;2;0;3358;0;0;0;0;3;0;2086;0;0;0;0;4;0;3040;0;0;0;0;5;0;7546;2;0;0;0;0;0;6;0;5149;2;0;0;0;0;0;7;0;3877;0;0;0;0;8;0;3859;0;0;0;0;9;0;2023;0;0;0;0
07.02.18;17:15:00;1;543;5910;0;2;0;3358;0;0;0;0;3;0;2086;0;0;35;1;4;0;3040;0;0;0;0;5;0;7546;2;0;0;0;0;0;6;0;5149;2;0;0;0;0;0;7;0;3877;0;0;0;0;8;0;3859;0;0;0;0;9;0;2023;0;0;0;0
07.02.18;17:10:00;1;944;5864;0;2;0;3358;0;0;222;6;3;0;2086;6;0;277;11;4;0;3040;0;0;0;0;5;0;7546;2;0;0;0;0;0;6;0;5149;2;0;0;0;0;0;7;0;3877;0;0;0;0;8;0;3859;0;0;0;0;9;0;2023;0;0;0;0
07.02.18;17:05:00;1;573;5789;0;2;0;3358;6;0;293;8;3;0;2086;6;0;310;11;4;0;3040;0;0;44;2;5;0;7546;2;0;0;0;0;0;6;0;5149;1;0;0;0;0;0;7;0;3877;0;0;0;0;8;0;3859;0;0;0;0;9;0;2023;0;0;0;0
07.02.18;17:00:00;1;836;5741;0;2;0;3358;6;0;325;8;3;0;2086;6;0;373;11;4;0;3040;2;0;91;4;5;0;7546;2;0;1;224;222;10;6;0;5149;1;0;0;0;0;4;7;0;3877;0;0;6;1;8;0;3859;0;0;0;0;9;0;2023;0;0;84;2
07.02.18;16:55:00;1;1798;5646;0;2;0;3358;6;0;349;8;3;0;2086;6;0;416;11;4;0;3040;1;0;117;4;5;0;7546;23;0;0;374;412;16;6;0;5149;23;8;0;179;392;14;7;0;3877;6;0;274;10;8;0;3859;6;0;270;9;9;0;2023;6;0;290;6
07.02.18;16:50:00;1;2424;5508;0;2;0;3358;6;0;362;8;3;0;2086;6;0;429;11;4;0;3040;1;0;134;4;5;0;7546;26;0;0;400;466;17;6;0;5149;23;9;1;181;500;14;7;0;3877;6;0;308;10;8;0;3859;6;0;305;9;9;0;2023;6;0;316;6
07.02.18;16:45:00;1;2673;5306;0;2;0;3358;6;0;372;8;3;0;2086;4;2;420;11;4;0;3040;1;0;149;4;5;0;7546;26;0;0;411;458;17;6;0;5149;23;8;0;482;236;14;7;0;3877;6;0;334;10;8;0;3859;6;0;331;9;9;0;2023;6;0;345;7
07.02.18;16:40:00;1;1369;5074;0;2;0;3358;6;0;381;8;3;0;2086;6;2;443;11;4;0;3040;1;0;166;5;5;0;7546;23;0;0;420;581;17;6;0;5149;23;10;1;256;474;14;7;0;3877;6;0;366;10;8;0;3859;6;0;363;9;9;0;2023;6;0;382;7
07.02.18;16:35:00;1;397;4985;0;2;0;3358;6;0;386;8;3;0;2086;6;1;449;11;4;0;3040;1;0;176;5;5;2;7546;1;0;0;422;649;17;6;0;5149;23;9;2;212;557;15;7;0;3877;6;0;385;10;8;0;3859;6;0;383;9;9;0;2023;6;0;405;7
07.02.18;16:30:00;1;386;4952;0;2;0;3358;6;0;389;8;3;0;2086;6;2;456;11;4;0;3040;1;0;182;5;5;3;7545;1;0;2;423;642;17;6;0;5149;23;11;1;500;256;15;7;0;3877;6;0;397;10;8;0;3859;6;0;395;10;9;0;2023;6;0;406;7
07.02.18;16:25:00;1;454;4919;0;2;0;3358;6;0;391;8;3;0;2086;6;1;463;12;4;0;3040;1;0;186;5;5;10;7544;1;0;2;414;630;18;6;0;5149;23;10;1;316;436;15;7;0;3877;6;0;404;10;8;0;3859;6;0;403;10;9;0;2023;6;0;414;7
07.02.18;16:20:00;1;455;4881;0;2;0;3358;6;0;392;8;3;1;2086;6;2;460;12;4;0;3040;1;0;188;5;5;7;7544;1;1;1;415;639;18;6;0;5149;23;8;2;182;565;15;7;0;3877;6;0;407;10;8;0;3859;6;0;407;10;9;0;2023;6;0;417;7
07.02.18;16:15:00;1;920;4843;0;2;0;3358;6;0;395;8;3;0;2086;6;1;466;12;4;0;3040;1;0;194;6;5;7;7543;1;1;1;421;658;18;6;0;5149;23;8;1;182;568;16;7;0;3877;6;0;407;11;8;0;3859;6;0;407;10;9;0;2023;6;0;431;7
07.02.18;16:10:00;1;498;4776;0;2;0;3358;6;0;404;8;3;0;2086;3;5;446;12;4;0;3040;1;0;211;6;5;18;7542;1;4;3;418;663;19;6;0;5149;23;8;1;182;580;16;7;0;3877;6;0;442;11;8;0;3859;6;1;422;10;9;0;2023;4;0;453;7
07.02.18;16:05:00;1;496;4734;0;2;2;3358;6;4;400;9;3;1;2086;6;3;488;12;4;0;3040;1;0;228;6;5;56;7542;1;12;13;400;634;19;6;0;5149;23;9;0;362;591;16;7;1;3877;4;4;423;11;8;0;3859;6;2;437;10;9;2;2023;3;2;451;7
07.02.18;16:00:00;1;466;4693;0;2;0;3357;6;5;407;9;3;1;2086;6;3;498;12;4;0;3040;3;0;218;6;5;82;7537;4;25;16;390;617;20;6;0;5149;23;5;0;450;598;17;7;2;3877;3;6;437;11;8;2;3859;6;2;461;10;9;2;2023;6;2;499;7
07.02.18;15:55:00;1;390;4654;0;2;2;3357;6;9;404;9;3;3;2086;6;7;483;12;4;0;3040;3;0;219;7;5;93;7530;4;34;26;390;617;20;6;0;5149;8;10;0;444;605;17;7;1;3877;6;4;476;11;8;1;3859;6;3;476;10;9;2;2023;6;2;519;7
07.02.18;15:50:00;1;954;4621;0;2;0;3357;6;0;428;9;3;2;2086;6;5;509;12;4;0;3040;3;0;218;7;5;106;7523;4;42;29;390;617;20;6;0;5149;23;10;0;569;608;17;7;3;3877;6;5;477;11;8;0;3859;4;5;478;11;9;6;2023;6;7;490;7
07.02.18;15:45:00;1;391;4558;0;2;4;3357;3;12;406;9;3;2;2086;6;4;517;12;4;0;3040;3;0;225;7;5;114;7514;4;47;34;390;617;20;6;0;5149;8;7;0;434;611;18;7;1;3876;6;6;488;11;8;2;3859;3;13;462;11;9;0;2022;6;3;532;7
07.02.18;15:40:00;1;399;4526;0;2;3;3357;6;8;418;9;3;2;2085;4;5;515;12;4;0;3040;3;0;232;7;5;121;7504;4;50;37;390;617;20;6;0;5149;8;9;0;472;614;18;7;3;3876;6;9;485;12;8;2;3859;6;6;485;11;9;0;2022;6;0;541;8
07.02.18;15:35:00;1;415;4492;0;2;7;3356;6;14;411;9;3;3;2085;6;10;496;12;4;0;3040;3;0;200;7;5;128;7494;4;57;41;390;617;20;6;34;5149;1;11;3;494;446;19;7;0;3876;6;0;499;12;8;2;3859;6;7;495;11;9;1;2022;3;8;518;8
07.02.18;15:30:00;1;422;4458;0;2;4;3356;6;10;423;9;3;1;2085;6;6;524;12;4;3;3040;3;3;200;7;5;144;7483;4;65;52;390;617;20;6;62;5146;4;50;24;425;362;19;7;14;3876;3;22;464;12;8;5;3858;6;9;496;12;9;4;2022;6;13;513;8
07.02.18;15:25:00;1;274;4423;0;2;9;3356;6;19;415;10;3;2;2085;6;6;527;12;4;15;3040;3;15;199;7;5;170;7471;4;78;65;390;617;20;6;67;5141;4;30;15;424;361;19;7;45;3874;4;75;371;12;8;36;3858;6;57;390;12;9;3;2022;6;6;557;8
07.02.18;15:20:00;1;499;4406;0;2;0;3355;6;0;449;10;3;3;2085;6;8;536;12;4;19;3038;3;19;198;7;5;188;7457;4;96;64;390;617;20;6;80;5136;4;66;34;424;361;19;7;59;3871;4;91;443;12;8;49;3855;4;87;429;12;9;4;2022;6;8;538;8
07.02.18;15:15:00;1;227;4359;0;2;13;3355;4;22;420;10;3;1;2084;6;7;540;13;4;21;3037;3;22;198;7;5;196;7441;4;98;68;390;617;20;6;82;5129;4;40;20;424;361;19;7;74;3866;4;101;406;12;8;65;3851;4;94;428;12;9;4;2021;6;8;568;8
07.02.18;15:10:00;1;228;4340;0;2;49;3353;4;74;363;11;3;4;2084;4;9;537;13;4;35;3035;3;36;198;8;5;217;7425;4;114;86;390;617;20;6;90;5122;4;46;24;424;362;19;7;86;3860;4;121;429;12;8;75;3846;4;108;465;12;9;0;2021;6;0;597;8
07.02.18;15:05:00;1;203;4321;0;2;54;3349;4;87;405;11;3;11;2084;3;26;496;13;4;43;3032;3;45;198;8;5;238;7406;4;117;93;390;617;20;6;96;5114;4;54;29;425;362;19;7;99;3852;4;126;452;12;8;77;3839;4;118;477;12;9;13;2021;3;20;549;8
07.02.18;15:00:00;1;185;4304;0;2;53;3345;4;83;408;11;3;4;2083;6;10;543;13;4;41;3029;3;43;198;8;5;234;7387;4;120;92;390;617;20;6;97;5106;4;67;36;425;362;19;7;100;3844;4;133;469;12;8;81;3833;4;116;487;12;9;16;2020;6;24;535;8
07.02.18;14:55:00;1;185;4289;0;2;54;3340;4;84;393;11;3;4;2082;6;8;548;13;4;44;3025;3;46;198;8;5;244;7367;4;123;95;390;617;20;6;98;5098;4;78;43;425;362;19;7;81;3836;4;124;459;12;8;78;3826;4;114;474;12;9;6;2019;6;9;573;9
07.02.18;14:50:00;1;496;4273;0;2;59;3336;4;91;413;11;3;5;2082;6;11;545;13;4;57;3021;3;60;198;8;5;256;7346;4;130;97;390;617;20;6;102;5090;4;70;39;425;362;19;7;106;3829;4;131;444;12;8;81;3820;4;117;452;12;9;7;2018;6;11;569;9
07.02.18;14:45:00;1;185;4228;0;2;69;3331;4;99;421;11;3;5;2082;6;10;554;13;4;67;3016;3;69;198;8;5;282;7325;4;145;108;390;617;20;6;109;5081;4;51;31;425;362;19;7;107;3820;4;143;430;13;8;90;3813;4;134;467;12;9;6;2018;6;10;574;9
07.02.18;14:40:00;1;187;4213;0;2;82;3325;4;115;421;11;3;7;2081;4;13;549;13;4;89;3011;3;93;212;8;5;323;7301;4;173;124;399;617;20;6;127;5072;4;72;46;425;362;19;7;139;3811;4;180;440;13;8;127;3805;4;166;463;12;9;39;2017;6;58;406;9
07.02.18;14:35:00;1;251;4197;0;2;98;3318;4;130;425;11;3;16;2080;3;26;539;14;4;112;3004;5;117;232;8;5;385;7274;4;204;144;423;617;20;6;147;5061;4;100;71;425;362;19;7;172;3800;4;205;482;13;8;151;3795;4;186;440;12;9;64;2014;4;85;410;9
07.02.18;14:30:00;1;252;4176;0;2;106;3310;4;140;427;11;3;24;2079;6;40;562;14;4;134;2994;5;140;236;8;5;415;7242;4;223;154;419;617;20;6;157;5049;4;87;62;425;362;19;7;196;3786;4;228;485;13;8;171;3782;4;207;449;12;9;73;2009;4;99;449;9
07.02.18;14:25:00;1;287;4155;0;2;127;3301;4;162;433;11;3;72;2077;4;116;526;14;4;166;2983;5;173;238;8;5;475;7207;4;252;182;419;654;20;6;182;5035;4;115;78;470;361;19;7;229;3770;4;265;476;13;8;204;3768;4;236;439;12;9;89;2003;4;118;489;10
07.02.18;14:20:00;1;583;4131;0;2;157;3291;4;191;432;12;3;89;2071;4;129;542;14;4;204;2969;5;213;242;8;5;536;7167;4;286;225;414;745;20;6;239;5020;4;121;86;641;450;19;7;274;3751;4;309;481;13;8;244;3751;4;275;458;12;9;111;1995;4;137;514;10
07.02.18;14:15:00;1;297;4076;0;2;181;3278;4;218;441;12;3;109;2064;4;150;546;14;4;243;2953;5;253;245;8;5;643;7119;4;349;257;434;729;20;6;311;4999;4;182;171;642;619;19;7;315;3728;4;356;482;13;8;292;3731;4;332;492;12;9;130;1986;4;159;531;10
07.02.18;14:10:00;1;220;4051;0;2;201;3263;4;240;440;12;3;122;2055;4;166;547;14;4;272;2932;5;283;243;8;5;704;7066;4;367;287;440;737;20;6;335;4973;4;181;179;645;614;19;7;354;3702;4;399;499;13;8;329;3707;4;372;505;12;9;146;1975;4;177;559;10
07.02.18;14:05:00;1;185;4033;0;2;213;3246;4;253;441;12;3;133;2045;4;176;550;14;4;291;2910;5;303;245;8;5;742;7008;4;393;297;437;750;20;6;360;4945;4;189;181;638;621;19;7;377;3672;4;420;504;13;8;348;3680;4;392;499;12;9;156;1963;4;190;565;10
07.02.18;14:00:00;1;185;4017;0;2;237;3228;4;276;443;12;3;146;2033;4;190;558;14;4;315;2886;5;328;246;9;5;800;6946;4;418;322;438;728;20;6;387;4915;4;209;203;641;622;19;7;413;3641;4;442;504;13;8;381;3651;4;423;505;12;9;172;1950;4;207;570;10
07.02.18;13:55:00;1;186;4002;0;2;249;3209;4;287;443;12;3;157;2021;4;203;552;15;4;328;2859;5;341;248;9;5;825;6880;4;427;339;436;741;20;6;409;4883;4;211;213;653;614;19;7;425;3607;4;474;497;13;8;403;3619;4;444;504;12;9;192;1936;4;223;552;10
07.02.18;13:50:00;1;473;3986;0;2;255;3188;4;293;448;12;3;153;2008;4;197;565;15;4;326;2832;5;340;247;9;5;807;6813;4;413;336;441;752;20;6;409;4849;4;218;215;643;610;19;7;426;3572;4;477;491;13;8;419;3586;4;453;505;12;9;193;1920;4;228;568;10
07.02.18;13:45:00;1;425;3946;0;2;237;3167;4;277;446;12;3;146;1995;4;189;557;15;4;297;2805;5;310;242;9;5;751;6745;4;380;307;435;737;20;6;380;4815;4;225;223;630;601;19;7;394;3536;4;437;493;13;8;369;3551;4;418;503;12;9;182;1904;4;215;560;10
07.02.18;13:40:00;1;185;3926;0;2;241;3147;4;281;443;12;3;151;1983;4;195;554;15;4;297;2780;5;309;243;9;5;747;6683;4;372;308;430;723;20;6;373;4783;4;208;211;631;600;19;7;374;3503;4;412;485;13;8;357;3520;4;395;491;12;9;174;1888;4;206;555;10